TimeCST,TemperatureF,Dew PointF,Humidity,Sea Level PressureIn,VisibilityMPH,Wind Direction,Wind SpeedMPH,Gust SpeedMPH,PrecipitationIn,Events,Conditions,WindDirDegrees,DateUTC
12:52 AM,36.0,32.0,86,30.21,10.0,Calm,Calm,-,N/A,,Clear,0,2012-11-04 05:52:00
1:52 AM,37.0,34.0,89,30.21,10.0,Calm,Calm,-,N/A,,Clear,0,2012-11-04 06:52:00
1:52 AM,35.1,32.0,89,30.20,10.0,WNW,4.6,-,N/A,,Clear,300,2012-11-04 07:52:00
2:52 AM,36.0,34.0,93,30.19,10.0,Calm,Calm,-,N/A,,Clear,0,2012-11-04 08:52:00
3:52 AM,32.0,30.9,96,30.19,8.0,Calm,Calm,-,N/A,,Clear,0,2012-11-04 09:52:00
4:52 AM,33.1,30.9,92,30.19,5.0,Calm,Calm,-,N/A,,Clear,0,2012-11-04 10:52:00
5:46 AM,32.0,30.2,93,30.21,1.8,Calm,Calm,-,N/A,,Clear,0,2012-11-04 11:46:00
5:52 AM,28.9,28.0,96,30.21,3.0,Calm,Calm,-,N/A,,Clear,0,2012-11-04 11:52:00
6:52 AM,30.0,28.0,92,30.21,6.0,Calm,Calm,-,N/A,,Clear,0,2012-11-04 12:52:00
7:52 AM,37.0,33.1,86,30.22,8.0,SSE,3.5,-,N/A,,Clear,150,2012-11-04 13:52:00
8:52 AM,46.0,36.0,68,30.20,10.0,SSW,5.8,-,N/A,,Clear,200,2012-11-04 14:52:00
9:52 AM,55.9,36.0,47,30.17,10.0,SSW,10.4,-,N/A,,Clear,200,2012-11-04 15:52:00
10:52 AM,61.0,34.0,36,30.15,10.0,SSW,13.8,-,N/A,,Clear,200,2012-11-04 16:52:00
11:52 AM,66.0,33.1,29,30.12,10.0,SSW,16.1,20.7,N/A,,Clear,210,2012-11-04 17:52:00
12:52 PM,66.9,30.0,25,30.08,10.0,SW,15.0,21.9,N/A,,Clear,220,2012-11-04 18:52:00
1:52 PM,69.1,28.9,22,30.04,10.0,SSW,16.1,26.5,N/A,,Clear,200,2012-11-04 19:52:00
2:52 PM,69.1,28.0,22,30.02,10.0,SSW,19.6,24.2,N/A,,Clear,210,2012-11-04 20:52:00
3:52 PM,68.0,28.9,23,30.02,10.0,SSW,12.7,-,N/A,,Clear,200,2012-11-04 21:52:00
4:52 PM,66.0,30.0,26,30.01,10.0,SSW,11.5,-,N/A,,Clear,200,2012-11-04 22:52:00
5:52 PM,57.0,30.0,36,30.03,10.0,South,6.9,-,N/A,,Clear,190,2012-11-04 23:52:00
6:52 PM,54.0,30.0,40,30.03,10.0,South,5.8,-,N/A,,Clear,170,2012-11-05 00:52:00
7:52 PM,55.9,30.0,37,30.03,10.0,SSE,3.5,-,N/A,,Clear,160,2012-11-05 01:52:00
8:52 PM,54.0,30.9,41,30.07,10.0,NW,12.7,20.7,N/A,,Clear,320,2012-11-05 02:52:00
9:52 PM,53.1,32.0,45,30.06,10.0,Calm,Calm,-,N/A,,Overcast,0,2012-11-05 03:52:00
10:52 PM,55.9,35.1,45,30.04,10.0,Calm,Calm,-,N/A,,Overcast,0,2012-11-05 04:52:00